TimeCST,TemperatureF,Dew PointF,Humidity,Sea Level PressureIn,VisibilityMPH,Wind Direction,Wind SpeedMPH,Gust SpeedMPH,PrecipitationIn,Events,Conditions,WindDirDegrees,DateUTC
12:15 AM,32.0,32.0,100,29.49,2.5,Calm,Calm,-,N/A,Snow,Light Snow,0,2013-02-27 06:15:00
12:35 AM,32.0,32.0,100,29.49,2.0,West,4.6,-,N/A,Snow,Light Snow,280,2013-02-27 06:35:00
12:55 AM,32.0,32.0,100,29.49,1.5,West,3.5,-,N/A,,Overcast,270,2013-02-27 06:55:00
1:15 AM,32.0,32.0,100,29.50,1.5,West,4.6,-,N/A,,Overcast,260,2013-02-27 07:15:00
1:35 AM,32.0,32.0,100,29.50,1.5,West,4.6,-,N/A,,Overcast,270,2013-02-27 07:35:00
1:55 AM,32.0,32.0,100,29.49,1.5,West,3.5,-,N/A,,Overcast,270,2013-02-27 07:55:00
2:15 AM,32.0,32.0,100,29.48,1.8,West,3.5,-,N/A,,Overcast,280,2013-02-27 08:15:00
2:35 AM,32.0,32.0,100,29.49,2.0,West,4.6,-,N/A,,Overcast,260,2013-02-27 08:35:00
2:55 AM,32.0,32.0,100,29.48,1.8,West,4.6,-,N/A,,Overcast,260,2013-02-27 08:55:00
3:15 AM,32.0,32.0,100,29.49,1.5,WSW,5.8,-,N/A,,Overcast,250,2013-02-27 09:15:00
3:35 AM,32.0,32.0,100,29.49,1.2,WSW,6.9,-,N/A,,Overcast,250,2013-02-27 09:35:00
3:55 AM,32.0,32.0,100,29.50,1.0,WSW,8.1,-,N/A,,Overcast,240,2013-02-27 09:55:00
4:15 AM,32.0,32.0,100,29.50,0.8,WSW,8.1,-,N/A,,Overcast,240,2013-02-27 10:15:00
4:35 AM,32.0,32.0,100,29.51,0.5,WSW,9.2,-,N/A,Fog,Fog,240,2013-02-27 10:35:00
4:55 AM,32.0,32.0,100,29.52,0.8,WSW,8.1,-,N/A,,Overcast,240,2013-02-27 10:55:00
5:35 AM,32.0,32.0,100,29.53,0.8,WSW,6.9,-,N/A,,Overcast,250,2013-02-27 11:35:00
5:55 AM,32.0,32.0,100,29.53,0.5,West,8.1,-,N/A,Fog,Fog,260,2013-02-27 11:55:00
6:15 AM,32.0,32.0,100,29.53,0.5,West,8.1,-,N/A,Snow,Light Snow,260,2013-02-27 12:15:00
6:35 AM,32.0,32.0,100,29.53,1.0,West,9.2,-,N/A,Snow,Light Snow,260,2013-02-27 12:35:00
6:55 AM,32.0,32.0,100,29.54,0.8,WSW,6.9,-,N/A,,Overcast,250,2013-02-27 12:55:00
7:15 AM,32.0,32.0,100,29.55,1.5,WSW,9.2,-,N/A,,Overcast,240,2013-02-27 13:15:00
7:35 AM,32.0,32.0,100,29.56,2.0,SW,8.1,-,N/A,,Overcast,230,2013-02-27 13:35:00
7:55 AM,32.0,32.0,100,29.57,1.8,WSW,8.1,-,N/A,Snow,Light Snow,240,2013-02-27 13:55:00
8:15 AM,32.0,32.0,100,29.57,1.2,WSW,8.1,-,N/A,Snow,Light Snow,240,2013-02-27 14:15:00
8:35 AM,32.0,32.0,100,29.57,1.2,WSW,8.1,-,N/A,Snow,Light Snow,240,2013-02-27 14:35:00
8:55 AM,32.0,32.0,100,29.58,1.5,WSW,8.1,-,N/A,Snow,Light Snow,240,2013-02-27 14:55:00
9:15 AM,32.0,32.0,100,29.58,1.8,SW,9.2,-,N/A,,Overcast,230,2013-02-27 15:15:00
9:35 AM,32.0,32.0,100,29.58,2.5,SW,8.1,-,N/A,,Overcast,230,2013-02-27 15:35:00
9:55 AM,32.0,32.0,100,29.58,2.5,SW,9.2,-,N/A,Snow,Light Snow,230,2013-02-27 15:55:00
10:15 AM,32.0,32.0,100,29.57,2.5,SW,9.2,-,N/A,,Overcast,230,2013-02-27 16:15:00
10:35 AM,32.0,32.0,100,29.57,4.0,WSW,10.4,-,N/A,Snow,Light Snow,240,2013-02-27 16:35:00
10:55 AM,32.0,32.0,100,29.58,4.0,WSW,8.1,-,N/A,Snow,Light Snow,240,2013-02-27 16:55:00
11:15 AM,32.0,32.0,100,29.58,4.0,WSW,8.1,-,N/A,Snow,Light Snow,240,2013-02-27 17:15:00
11:35 AM,32.0,32.0,100,29.58,4.0,SW,10.4,-,N/A,Snow,Light Snow,230,2013-02-27 17:35:00
11:55 AM,32.0,32.0,100,29.58,4.0,WSW,10.4,-,N/A,,Overcast,240,2013-02-27 17:55:00
12:15 PM,32.0,32.0,100,29.58,5.0,WSW,10.4,-,N/A,Snow,Light Snow,240,2013-02-27 18:15:00
12:35 PM,32.0,32.0,100,29.58,3.0,WSW,10.4,-,N/A,Snow,Light Snow,240,2013-02-27 18:35:00
12:55 PM,32.0,32.0,100,29.58,3.0,WSW,12.7,-,N/A,Snow,Light Snow,240,2013-02-27 18:55:00
1:15 PM,32.0,32.0,100,29.58,3.0,WSW,10.4,-,N/A,Snow,Light Snow,240,2013-02-27 19:15:00
1:35 PM,32.0,32.0,100,29.58,2.5,WSW,11.5,-,N/A,Snow,Light Snow,240,2013-02-27 19:35:00
1:55 PM,32.0,32.0,100,29.59,2.5,WSW,11.5,-,N/A,Snow,Light Snow,240,2013-02-27 19:55:00
2:15 PM,32.0,32.0,100,29.59,2.5,WSW,12.7,-,N/A,Snow,Light Snow,240,2013-02-27 20:15:00
2:35 PM,32.0,32.0,100,29.60,3.0,WSW,13.8,19.6,N/A,Snow,Light Snow,240,2013-02-27 20:35:00
2:55 PM,32.0,32.0,100,29.60,4.0,WSW,10.4,-,N/A,Snow,Light Snow,240,2013-02-27 20:55:00
3:15 PM,32.0,32.0,100,29.61,3.0,WSW,13.8,19.6,N/A,Snow,Light Snow,240,2013-02-27 21:15:00
3:35 PM,32.0,32.0,100,29.61,3.0,WSW,13.8,-,N/A,Snow,Light Snow,250,2013-02-27 21:35:00
3:55 PM,32.0,32.0,100,29.61,4.0,WSW,13.8,17.3,N/A,Snow,Light Snow,250,2013-02-27 21:55:00
4:15 PM,32.0,32.0,100,29.62,5.0,WSW,12.7,17.3,N/A,Snow,Light Snow,240,2013-02-27 22:15:00
4:35 PM,32.0,32.0,100,29.62,5.0,WSW,12.7,19.6,N/A,Snow,Light Snow,250,2013-02-27 22:35:00
4:55 PM,32.0,32.0,100,29.63,2.0,WSW,13.8,-,N/A,Snow,Light Snow,250,2013-02-27 22:55:00
5:15 PM,32.0,32.0,100,29.63,1.5,WSW,13.8,20.7,N/A,Snow,Light Snow,250,2013-02-27 23:15:00
5:35 PM,32.0,32.0,100,29.64,1.2,WSW,13.8,-,N/A,Snow,Light Snow,250,2013-02-27 23:35:00
5:55 PM,32.0,32.0,100,29.64,2.5,WSW,11.5,-,N/A,Snow,Light Snow,250,2013-02-27 23:55:00
6:15 PM,32.0,32.0,100,29.65,2.5,WSW,10.4,-,N/A,Snow,Light Snow,250,2013-02-28 00:15:00
6:35 PM,32.0,32.0,100,29.65,2.5,WSW,11.5,-,N/A,Snow,Light Snow,250,2013-02-28 00:35:00
6:55 PM,32.0,32.0,100,29.65,3.0,WSW,12.7,-,N/A,Snow,Light Snow,250,2013-02-28 00:55:00
7:15 PM,32.0,32.0,100,29.65,3.0,WSW,11.5,-,N/A,Snow,Light Snow,250,2013-02-28 01:15:00
7:35 PM,32.0,32.0,100,29.65,3.0,WSW,12.7,-,N/A,Snow,Light Snow,250,2013-02-28 01:35:00
8:15 PM,32.0,32.0,100,29.66,3.0,West,11.5,-,N/A,Snow,Light Snow,260,2013-02-28 02:15:00
8:35 PM,32.0,32.0,100,29.66,4.0,West,10.4,-,N/A,Snow,Light Snow,260,2013-02-28 02:35:00
8:55 PM,32.0,32.0,100,29.66,5.0,West,11.5,-,N/A,Snow,Light Snow,260,2013-02-28 02:55:00
9:15 PM,32.0,32.0,100,29.66,4.0,West,11.5,-,N/A,Snow,Light Snow,270,2013-02-28 03:15:00
9:35 PM,32.0,32.0,100,29.66,7.0,West,12.7,-,N/A,Snow,Light Snow,270,2013-02-28 03:35:00
10:15 PM,32.0,32.0,100,29.66,7.0,West,9.2,-,N/A,Snow,Light Snow,280,2013-02-28 04:15:00
10:35 PM,32.0,32.0,100,29.66,7.0,West,11.5,-,N/A,,Overcast,270,2013-02-28 04:35:00
10:55 PM,32.0,32.0,100,29.66,7.0,West,9.2,-,N/A,,Overcast,280,2013-02-28 04:55:00
11:15 PM,32.0,32.0,100,29.66,10.0,West,11.5,-,N/A,,Overcast,280,2013-02-28 05:15:00